Richlands, VA

7:48 AM EDT on May 26, 2017 (GMT -0400)
Tazewell County

Weather History for KJFZ - April, 2014

Change the Weather History Date:

Thursday, April 3, 2014

  Actual Average (KBLF) Record (KBLF)
Temperature  
Mean Temperature 68 °F -  
Max Temperature 77 °F 61 °F 81 °F (2010)
Min Temperature 58 °F 40 °F 21 °F (1961)
Cooling Degree Days 2    
Growing Degree Days 18 (Base 50)    
Moisture  
Dew Point 50 °F    
Average Humidity 54    
Maximum Humidity 88    
Minimum Humidity 35    
Precipitation  
Precipitation 0.13 in - - ()
Sea Level Pressure  
Sea Level Pressure 30.00 in    
Wind  
Wind Speed 7 mph (SW)    
Max Wind Speed 20 mph    
Max Gust Speed 29 mph    
Visibility 10 miles    
Events Rain , Thunderstorm    
Averages and records for this station are not official NWS values.
T = Trace of Precipitation, MM = Missing Value Source: NWS Daily Summary

Daily Weather History Graph

Daily Weather History Graph

Search for Another Location

Airport or City:

Trip Planner

Search our weather history database for the weather conditions in past years. The results will help you decide how hot, cold, wet, or windy it might be!

Date:

Astronomy

Apr. 03, 2014 Rise Set
Actual Time 7:09 AM EDT 7:51 PM EDT
Civil Twilight 6:43 AM EDT 8:17 PM EDT
Nautical Twilight 6:12 AM EDT 8:48 PM EDT
Astronomical Twilight 5:41 AM EDT 9:20 PM EDT
Moon 9:42 AM EDT (4/3) No Moon Set
Length of Visible Light 13h 34m
Length of Day
12h 41m
Waxing Crescent, 17% of the Moon is Illuminated
Apr 3
Waxing Crescent
Apr 7
First Quarter
Apr 15
Full
Apr 22
Last Quarter
Apr 29
New

Hourly Weather History & Observations

Time (EDT) Temp. Dew Point Humidity Pressure Visibility Wind Dir Wind Speed Gust Speed Precip Events Conditions
12:15 AM 69.6 °F 41.2 °F 36% 30.08 in 10.0 mi WSW 4.6 mph - N/A   Clear
12:35 AM 69.8 °F 41.0 °F 35% 30.08 in 10.0 mi SW 6.9 mph - N/A   Clear
1:15 AM 67.6 °F 43.0 °F 41% 30.07 in 10.0 mi Calm Calm - N/A   Clear
1:35 AM 66.2 °F 42.8 °F 43% 30.07 in 10.0 mi Calm Calm - N/A   Clear
1:55 AM 66.6 °F 42.6 °F 42% 30.06 in 10.0 mi SW 5.8 mph - N/A   Clear
2:15 AM 67.3 °F 40.8 °F 38% 30.05 in 10.0 mi SSW 4.6 mph - N/A   Clear
2:35 AM 65.7 °F 41.4 °F 41% 30.05 in 10.0 mi South 5.8 mph - N/A   Clear
2:55 AM 63.7 °F 41.9 °F 45% 30.05 in 10.0 mi South 4.6 mph - N/A   Clear
3:15 AM 66.2 °F 39.7 °F 38% 30.05 in 10.0 mi SW 8.1 mph 16.1 mph N/A   Clear
3:35 AM 65.8 °F 39.4 °F 38% 30.04 in 10.0 mi SSW 5.8 mph - N/A   Clear
3:55 AM 66.2 °F 39.9 °F 38% 30.05 in 10.0 mi SW 8.1 mph - N/A   Clear
4:15 AM 66.0 °F 40.1 °F 39% 30.05 in 10.0 mi SW 8.1 mph 17.3 mph N/A   Clear
4:35 AM 66.0 °F 42.1 °F 42% 30.04 in 10.0 mi SW 11.5 mph 17.3 mph N/A   Clear
4:55 AM 65.5 °F 43.7 °F 45% 30.05 in 10.0 mi SW 9.2 mph 16.1 mph N/A   Clear
5:15 AM 65.3 °F 44.8 °F 47% 30.05 in 10.0 mi WSW 8.1 mph - N/A   Clear
5:35 AM 65.3 °F 45.5 °F 49% 30.05 in 10.0 mi SW 6.9 mph - N/A   Clear
5:55 AM 65.3 °F 45.9 °F 49% 30.05 in 10.0 mi SW 6.9 mph - N/A   Clear
6:15 AM 65.1 °F 46.2 °F 50% 30.05 in 10.0 mi SW 5.8 mph - N/A   Clear
6:35 AM 64.2 °F 46.4 °F 52% 30.05 in 10.0 mi WSW 9.2 mph - N/A   Clear
6:55 AM 64.6 °F 46.6 °F 52% 30.07 in 10.0 mi SW 5.8 mph - N/A   Mostly Cloudy
7:15 AM 64.2 °F 46.9 °F 53% 30.08 in 10.0 mi WSW 12.7 mph 18.4 mph N/A   Overcast
7:35 AM 62.2 °F 49.3 °F 63% 30.08 in 10.0 mi SW 8.1 mph 18.4 mph N/A Rain Light Rain
7:55 AM 59.5 °F 52.9 °F 79% 30.08 in 10.0 mi SW 11.5 mph 18.4 mph N/A Rain Light Rain
8:15 AM 59.0 °F 53.6 °F 82% 30.08 in 10.0 mi SSW 3.5 mph - N/A Rain Light Rain
8:35 AM 58.6 °F 54.1 °F 85% 30.07 in 10.0 mi SW 6.9 mph - N/A   Light Drizzle
8:55 AM 59.9 °F 54.1 °F 81% 30.06 in 10.0 mi SSE 3.5 mph - N/A   Overcast
9:15 AM 60.6 °F 54.3 °F 80% 30.05 in 10.0 mi SSE 5.8 mph - N/A   Scattered Clouds
9:35 AM 61.9 °F 54.1 °F 76% 30.05 in 10.0 mi South 3.5 mph - N/A Thunderstorm Scattered Clouds
9:55 AM 62.8 °F 53.6 °F 72% 30.07 in 10.0 mi South 5.8 mph - N/A   Overcast
10:15 AM 63.0 °F 54.1 °F 73% 30.09 in 10.0 mi WSW 8.1 mph - N/A   Overcast
10:35 AM 62.8 °F 54.1 °F 73% 30.07 in 10.0 mi SSW 6.9 mph - N/A   Overcast
10:55 AM 63.0 °F 54.3 °F 73% 30.06 in 10.0 mi SW 5.8 mph - N/A   Mostly Cloudy
11:15 AM 64.0 °F 54.5 °F 71% 30.05 in 10.0 mi Calm Calm - N/A   Mostly Cloudy
11:35 AM 64.6 °F 54.3 °F 69% 30.04 in 10.0 mi Calm Calm - N/A   Scattered Clouds
11:55 AM 64.6 °F 54.1 °F 69% 30.03 in 10.0 mi South 4.6 mph - N/A   Clear
12:15 PM 66.0 °F 54.3 °F 66% 30.01 in 10.0 mi Calm Calm - N/A   Clear
12:35 PM 68.4 °F 55.2 °F 63% 30.00 in 10.0 mi WNW 5.8 mph - N/A   Clear
12:55 PM 69.8 °F 53.8 °F 57% 30.00 in 10.0 mi SW 6.9 mph - N/A   Clear
1:15 PM 69.6 °F 54.1 °F 58% 29.99 in 10.0 mi SW 8.1 mph - N/A   Clear
1:35 PM 71.4 °F 54.3 °F 55% 29.98 in 10.0 mi WSW 8.1 mph - N/A   Clear
2:15 PM 73.6 °F 55.2 °F 53% 29.97 in 10.0 mi SSW 6.9 mph - N/A   Clear
2:35 PM 74.3 °F 54.9 °F 51% 29.97 in 10.0 mi SW 8.1 mph 21.9 mph N/A   Clear
2:55 PM 73.8 °F 54.0 °F 50% 29.96 in 10.0 mi South 8.1 mph 18.4 mph N/A   Clear
3:15 PM 75.7 °F 53.1 °F 45% 29.94 in 10.0 mi West 13.8 mph 25.3 mph N/A   Clear
3:35 PM 76.8 °F 52.2 °F 42% 29.94 in 10.0 mi SSW 10.4 mph - N/A   Clear
3:55 PM 76.5 °F 52.3 °F 43% 29.92 in 10.0 mi SSW 12.7 mph 23.0 mph N/A   Clear
4:15 PM 76.5 °F 52.9 °F 44% 29.92 in 10.0 mi SSW 8.1 mph 19.6 mph N/A   Clear
4:35 PM 76.6 °F 52.2 °F 42% 29.91 in 10.0 mi SW 11.5 mph 21.9 mph N/A   Scattered Clouds
4:55 PM 77.5 °F 51.8 °F 41% 29.91 in 10.0 mi SW 13.8 mph 28.8 mph N/A   Scattered Clouds
5:15 PM 76.1 °F 51.6 °F 42% 29.91 in 10.0 mi WSW 13.8 mph 23.0 mph N/A   Scattered Clouds
5:35 PM 76.6 °F 52.2 °F 42% 29.91 in 10.0 mi SSW 13.8 mph 25.3 mph N/A   Clear
5:55 PM 76.8 °F 52.3 °F 42% 29.90 in 10.0 mi WSW 19.6 mph 25.3 mph N/A   Clear
6:15 PM 75.9 °F 51.3 °F 42% 29.91 in 10.0 mi WSW 13.8 mph 28.8 mph N/A   Clear
6:35 PM 75.6 °F 51.3 °F 42% 29.91 in 10.0 mi SW 12.7 mph 25.3 mph N/A   Clear
6:55 PM 74.8 °F 52.0 °F 45% 29.91 in 10.0 mi SW 16.1 mph 20.7 mph N/A   Clear
7:15 PM 74.5 °F 52.5 °F 46% 29.91 in 10.0 mi SW 10.4 mph 16.1 mph N/A   Clear
7:35 PM 73.9 °F 52.7 °F 47% 29.92 in 10.0 mi SW 9.2 mph 18.4 mph N/A   Clear
7:55 PM 73.4 °F 52.9 °F 49% 29.92 in 10.0 mi SW 11.5 mph - N/A   Clear
8:15 PM 72.5 °F 53.1 °F 50% 29.91 in 10.0 mi SSW 9.2 mph - N/A   Clear
8:35 PM 72.1 °F 54.0 °F 53% 29.91 in 10.0 mi SW 8.1 mph - N/A   Scattered Clouds
8:55 PM 71.6 °F 54.5 °F 55% 29.93 in 10.0 mi SW 10.4 mph - N/A   Mostly Cloudy
9:15 PM 72.0 °F 54.7 °F 54% 29.94 in 10.0 mi SW 8.1 mph - N/A   Overcast
9:35 PM 72.1 °F 52.7 °F 50% 29.97 in 10.0 mi NW 15.0 mph 23.0 mph N/A   Overcast
9:55 PM 67.1 °F 54.3 °F 63% 29.98 in 10.0 mi NNW 9.2 mph 23.0 mph N/A Rain , Thunderstorm Thunderstorms and Rain
10:15 PM 65.5 °F 54.7 °F 68% 29.99 in 10.0 mi NNW 9.2 mph - N/A   Overcast
10:35 PM 65.1 °F 54.7 °F 69% 29.99 in 10.0 mi NW 8.1 mph - N/A Thunderstorm Thunderstorm
11:55 PM 61.0 °F 57.4 °F 88% 29.99 in 10.0 mi Calm Calm - 0.13 in   Overcast